Location: Byszew
(52.1813°N, 19.2693°E)
Time: 18:03:08
(UTC+00:00)

Cosmos 1777 Rocket - Visible Passes

Search period start: 19 June 2021 00:00
Search period end: 29 June 2021 00:00
Orbit: 758 x 776 km, 74.0° (Epoch: 18 June)

Date Brightness Start Highest point End Pass type
(mag) Time Alt. Az. Time Alt. Az. Time Alt. Az.
19 Jun 5.7 20:29:05 10° N 20:33:31 26° NE 20:37:55 10° ESE visible
19 Jun 4.1 22:10:48 10° NNW 22:16:05 70° WSW 22:19:36 21° S visible
19 Jun 6.1 23:55:10 10° WNW 23:57:08 12° W 23:59:06 10° WSW visible
20 Jun 6.1 19:51:59 10° N 19:55:43 19° NE 19:59:28 10° E visible
20 Jun 4.1 21:33:22 10° NNW 21:38:42 77° ENE 21:42:43 18° SSE visible
20 Jun 5.7 23:16:26 10° NW 23:20:08 19° W 23:22:56 13° SW visible
21 Jun 4.6 20:56:02 10° NNW 21:01:14 51° ENE 21:05:52 13° SE visible
21 Jun 5.2 22:38:28 10° NW 22:43:03 30° WSW 22:46:06 17° SSW visible
22 Jun 5.2 20:18:46 10° NNW 20:23:38 35° NE 20:28:29 10° ESE visible
22 Jun 4.6 22:00:47 10° NW 22:05:51 47° WSW 22:09:17 20° S visible
23 Jun 4.1 21:23:15 10° NNW 21:28:34 73° WSW 21:32:30 18° SSE visible
23 Jun 6.2 23:07:25 10° WNW 23:09:39 13° W 23:11:53 10° WSW visible
24 Jun 4.1 20:45:51 10° NNW 20:51:10 74° ENE 20:55:44 14° SSE visible
24 Jun 5.8 22:28:50 10° NW 22:32:39 20° W 22:35:58 12° SW visible
25 Jun 4.6 20:08:31 10° NNW 20:13:41 49° ENE 20:18:49 10° SE visible
25 Jun 5.2 21:50:54 10° NW 21:55:32 32° WSW 21:59:14 15° SSW visible
26 Jun 4.6 21:13:15 10° NW 21:18:21 49° WSW 21:22:31 15° S visible
27 Jun 4.1 20:35:43 10° NNW 20:41:02 77° WSW 20:45:51 13° SSE visible
27 Jun 6.3 22:19:42 10° WNW 22:22:10 13° W 22:24:38 10° WSW visible
28 Jun 4.2 19:58:18 10° NNW 20:03:38 71° ENE 20:08:55 10° SSE visible
28 Jun 5.8 21:41:13 10° NW 21:45:09 21° W 21:49:04 10° SW visible
